Regional Weather Roundup
Issued by NWS

Home | Current Version | Previous Version | Text Only | Print | Product List | Glossary On
Versions: 1 2 3 4 5 6 7 8 9 10 11 12 13 14 15 16 17 18 19 20 21 22 23 24 25 26 27 28 29 30 31 32 33 34 35 36 37 38 39 40 41 42 43 44 45 46 47 48 49 50
000
ASUS43 KDMX 171706
RWRIA

WEATHER ROUNDUP FOR IOWA
NATIONAL WEATHER SERVICE DES MOINES IA
1200 PM CDT THU JUN 17 2021

NOTE: "FAIR" INDICATES FEW OR NO CLOUDS BELOW 12,000 FEET WITH NO
SIGNIFICANT WEATHER AND/OR OBSTRUCTIONS TO VISIBILITY.

* - THESE STATIONS ARE NOT NWS STATIONS...THUS NOT UNDER NWS
QUALITY CONTROL.  THEY ALSO DO NOT REPORT WEATHER SUCH
AS PRECIPITATION OR FOG.

IAZ001>003-012>014-020>022-031>034-043>046-171800-
   NORTHWEST IOWA

CITY           SKY/WX    TMP DP  RH WIND       PRES   REMARKS
CARROLL *      MOSUNNY   93  64  38 S30G38    29.82R HX  95
CHEROKEE *     MOSUNNY   90  65  43 SW10G17   29.83F HX  92
DENISON *      MOSUNNY   97  55  24 S31G43    29.83S HX  95
LE MARS *      SUNNY     88  66  48 SW8       29.80F HX  90
MAURICE *        N/A    N/A N/A N/A MISG        N/A
SHELDON *      SUNNY     86  68  54 E8        29.80F HX  89
SIOUX CITY     SUNNY     88  70  55 SW7       29.81F HX  93
SPENCER        MOSUNNY   91  64  40 SW9G20    29.84F HX  92
STORM LAKE *   MOSUNNY   90  66  45 SW20G26   29.85F HX  92
$$

IAZ055>058-069>071-079>083-090>094-171800-
   SOUTHWEST IOWA

CITY           SKY/WX    TMP DP  RH WIND       PRES   REMARKS
ATLANTIC *     SUNNY     93  66  40 SW18G26   29.84F HX  96
AUDUBON *      SUNNY     93  59  31 S14G24    29.86F HX  92
CLARINDA *     MOSUNNY   90  77  66 S13       29.90F HX 102
COUNCIL BLFS * SUNNY     93  64  38 S15G22    29.85F HX  95
CRESTON *      MOSUNNY   88  72  58 SW13      29.89F HX  94
HARLAN  *      SUNNY     93  66  40 S24       29.85F HX  96
LAMONI         CLOUDY    82  65  56 SW7       29.88F HX  84
RED OAK *      SUNNY     95  68  41 SW14G21   29.87F HX  99
$$

IAZ047>049-059>061-072>074-084-171800-
   CENTRAL IOWA

CITY           SKY/WX    TMP DP  RH WIND       PRES   REMARKS
AMES           SUNNY     92  63  38 SW18      29.83F HX  93
ANKENY *       SUNNY     93  63  36 SW12      29.85F HX  94
BOONE *        SUNNY     93  66  40 SW14      29.86F HX  96
CHARITON *     PTSUNNY   88  66  48 W9        29.87F HX  90
DES MOINES     MOSUNNY   95  61  32 SW13      29.84F HX  95
GRINNELL*      SUNNY     88  64  43 SE7       29.88F HX  89
KNOXVILLE *    MOSUNNY   88  64  45 S9        29.87S HX  89
MARSHALLTOWN   SUNNY     89  64  43 S10       29.84F HX  90
NEWTON *       SUNNY     90  64  43 SW8       29.85F HX  91
PELLA *          N/A     92  57  31 SW3       29.88F HX  90
$$

IAZ004>006-015-016-023>025-035-036-171800-
   NORTH CENTRAL IOWA

CITY           SKY/WX    TMP DP  RH WIND       PRES   REMARKS
ALGONA *       SUNNY     93  63  36 SW20G29   29.83F HX  94
CLARION *      SUNNY     97  57  26 SW18      29.83S HX  95
ESTHERVILLE    MOSUNNY   86  67  52 SW14G20   29.84F HX  89
FORT DODGE *   SUNNY     97  59  28 SW23G29   29.84S HX  96
MASON CITY     MOSUNNY   94  58  29 SW14G24   29.87R HX  93
FOREST CITY *  FAIR      91  55  29 SW18G29   29.85F HX  89
WEBSTER CITY * SUNNY     95  63  34 SW20G29   29.81R HX  96
IOWA FALLS *   FAIR      93  63  36 SW12      29.85F HX  94
$$

IAZ007>011-017>019-026>030-037>042-050>054-066-171800-
   NORTHEAST IOWA

CITY           SKY/WX    TMP DP  RH WIND       PRES   REMARKS
CEDAR RAPIDS   SUNNY     84  64  50 S15       29.88F HX  85
CHARLES CITY * SUNNY     82  64  54 S8        29.88R HX  84
CLINTON *      MOSUNNY   86  61  42 SW16      29.94F HX  86
DECORAH *      MOSUNNY   81  63  54 SE8       29.86F HX  82
DUBUQUE        PTSUNNY   84  59  42 SW16      29.92S HX  84
MONTICELLO *   SUNNY     86  63  45 S15       29.88F HX  87
WATERLOO       SUNNY     88  61  40 S12G21    29.85F HX  88
$$

IAZ064-065-067-068-078-171800-
   EAST CENTRAL IOWA

CITY           SKY/WX    TMP DP  RH WIND       PRES   REMARKS
DAVENPORT      MOSUNNY   85  60  42 S16G23    29.94F HX  85
IOWA CITY      MOSUNNY   84  62  47 S10       29.90F HX  85
MT. PLEASANT * PTSUNNY   86  64  48 SE13      29.91F HX  87
MUSCATINE *    PTSUNNY   86  61  42 S14       29.91S HX  86
QUAD CITIES    MOSUNNY   87  61  41 S9G21     29.91F HX  87
$$

IAZ062-063-075>077-085>089-095>099-171800-
   SOUTHEAST IOWA

CITY           SKY/WX    TMP DP  RH WIND       PRES   REMARKS
BURLINGTON     MOSUNNY   82  64  54 S9        29.92F HX  83
FAIRFIELD *    SUNNY     82  66  57 SE12      29.90F HX  85
FORT MADISON * MOSUNNY   84  64  51 S6        29.93S HX  86
KEOKUK *       MOSUNNY   86  68  54 S8        29.91F HX  89
OSKALOOSA *      N/A     87  66  50 S7        29.90F HX  89
OTTUMWA        PTSUNNY   83  67  58 SE8       29.89F HX  85
WASHINGTON *   PTSUNNY   86  70  58 S12       29.88F HX  90
$$

ABBREVIATIONS USED IN REMARKS
   TC - TEMPERATURES IN CELSIUS
  WCI - WIND CHILL INDEX
   HX - HEAT INDEX
  VSB - VISIBILITY
$$




USA.gov is the U.S. government's official web portal to all federal, state and local government web resources and services.